EW3608 Weather Reports


Display with metric or nautical units.
time (UTC)temp
F
wind
direction
speed
MPH
gust
MPH
rain 1hr
in
rain 24hr
in
rain mn
in
humidity
%
barometer
mb
20240622003417 82 184 2.0 6.0 0.00 0.02 0.02 40 1016.4
20240622002514 82 180 2.0 9.0 0.00 0.02 0.02 39 1016.5
20240622001403 83 186 2.0 7.0 0.00 0.02 0.02 37 1016.4
20240622000503 83 156 3.0 11.0 0.00 0.02 0.02 36 1016.1
20240621235816 83 134 2.0 8.0 0.00 0.02 0.02 36 1015.9
20240621234705 83 169 4.0 10.0 0.00 0.02 0.02 35 1016.1
20240621233803 84 155 3.0 10.0 0.00 0.02 0.02 34 1016.1
20240621232903 84 188 5.0 13.0 0.00 0.02 0.02 35 1016.3
20240621232215 84 183 4.0 10.0 0.00 0.02 0.02 34 1016.3
20240621231104 84 164 3.0 10.0 0.00 0.02 0.02 36 1016.8
20240621230415 83 172 3.0 15.0 0.00 0.02 0.02 36 1017.1
20240621225307 84 189 5.0 15.0 0.00 0.02 0.02 38 1016.9
20240621224615 84 179 4.0 15.0 0.00 0.02 0.02 39 1017.1
20240621223503 84 187 3.0 13.0 0.00 0.02 0.02 40 1017.4
20240621222814 83 167 2.0 11.0 0.00 0.02 0.02 40 1017.5
20240621221917 82 175 4.0 13.0 0.00 0.02 0.02 42 1017.8
20240621220803 82 165 4.0 13.0 0.00 0.02 0.02 44 1018.1
20240621215903 82 175 3.0 11.0 0.00 0.02 0.02 46 1018.6
20240621215003 81 175 3.0 13.0 0.00 0.02 0.02 48 1019.0
20240621214316 80 186 4.0 11.0 0.00 0.02 0.02 48 1019.1
20240621213413 79 177 4.0 11.0 0.00 0.02 0.02 49 1019.2
20240621212306 76 155 1.0 5.0 0.00 0.02 0.02 56 1019.3
20240621211618 75 165 2.0 6.0 0.00 0.02 0.02 57 1019.3
20240621210503 75 183 3.0 10.0 0.00 0.02 0.02 54 1019.8
20240621205603 76 181 3.0 15.0 0.00 0.02 0.02 54 1019.9
20240621204915 75 192 6.0 15.0 0.00 0.02 0.02 55 1019.9
20240621203803 74 185 4.0 12.0 0.00 0.02 0.02 52 1020.0
20240621203115 75 185 5.0 12.0 0.00 0.02 0.02 51 1019.9
20240621202003 78 166 2.0 11.0 0.00 0.02 0.02 53 1019.8
20240621201315 79 114 1.0 4.0 0.00 0.02 0.02 50 1019.7
20240621200417 79 114 0.0 3.0 0.00 0.02 0.02 51 1019.5
20240621195307 78 114 0.0 2.0 0.00 0.02 0.02 53 1019.5
20240621194403 79 114 0.0 3.0 0.00 0.02 0.02 51 1019.2
20240621193714 79 114 0.0 4.0 0.00 0.02 0.02 51 1019.2
20240621192816 78 114 1.0 4.0 0.00 0.02 0.02 53 1019.3
20240621191704 78 102 2.0 6.0 0.00 0.02 0.02 53 1019.6
20240621190803 78 95 2.0 6.0 0.00 0.02 0.02 52 1019.6
20240621185903 78 91 2.0 6.0 0.00 0.02 0.02 53 1019.8
20240621185216 79 128 2.0 6.0 0.00 0.02 0.02 54 1019.9
20240621184103 78 59 2.0 7.0 0.00 0.02 0.02 54 1020.0
20240621183415 78 95 1.0 7.0 0.00 0.02 0.02 55 1020.1
20240621182513 77 75 1.0 5.0 0.00 0.02 0.02 56 1020.2
20240621181615 76 74 2.0 5.0 0.00 0.02 0.02 55 1020.3
20240621180717 76 74 1.0 5.0 0.00 0.02 0.02 56 1020.4
20240621175605 75 75 2.0 7.0 0.00 0.02 0.02 59 1020.6
20240621174703 76 76 1.0 7.0 0.00 0.02 0.02 57 1020.7
20240621174014 75 70 2.0 7.0 0.00 0.02 0.02 60 1020.6
20240621173117 75 67 2.0 5.0 0.00 0.02 0.02 62 1020.7
20240621172214 74 66 1.0 5.0 0.00 0.02 0.02 62 1020.9
20240621171316 74 66 1.0 4.0 0.00 0.02 0.02 55 1021.0
20240621170414 73 62 1.0 5.0 0.00 0.02 0.02 60 1020.9
20240621165306 72 57 1.0 3.0 0.00 0.02 0.02 66 1020.9
20240621164613 71 57 1.0 4.0 0.00 0.02 0.02 67 1021.0
20240621163503 71 49 1.0 6.0 0.00 0.02 0.02 66 1021.0
20240621162813 71 35 1.0 5.0 0.00 0.02 0.02 67 1020.9
20240621161703 70 32 2.0 6.0 0.00 0.02 0.02 68 1021.0
20240621160803 70 40 1.0 4.0 0.00 0.02 0.02 70 1020.9
20240621160115 69 40 1.0 5.0 0.00 0.02 0.02 69 1020.9
20240621155003 68 41 2.0 5.0 0.00 0.02 0.02 73 1020.9
20240621154315 68 49 2.0 5.0 0.00 0.02 0.02 73 1021.0
20240621153203 68 34 2.0 5.0 0.01 0.02 0.02 75 1021.0
20240621152515 68 30 1.0 4.0 0.01 0.02 0.02 75 1021.1
20240621151404 67 28 2.0 4.0 0.01 0.02 0.02 77 1021.3
20240621150714 66 82 1.0 7.0 0.01 0.02 0.02 79 1021.3
20240621145603 64 168 2.0 5.0 0.01 0.02 0.02 82 1021.5
20240621144914 64 170 1.0 6.0 0.01 0.02 0.02 83 1021.5
20240621144016 64 170 0.0 3.0 0.00 0.01 0.01 84 1021.5
20240621143114 64 170 0.0 2.0 0.00 0.01 0.01 84 1021.6
20240621142216 64 170 0.0 1.0 0.00 0.01 0.01 85 1021.5
20240621141104 63 170 0.0 1.0 0.00 0.01 0.01 86 1021.7
20240621140416 63 170 0.0 2.0 0.00 0.01 0.01 86 1021.7
20240621135518 63 170 0.0 2.0 0.00 0.01 0.01 87 1021.7
20240621134404 62 170 0.0 2.0 0.00 0.01 0.01 86 1021.7
20240621133503 62 173 1.0 4.0 0.00 0.01 0.01 87 1021.6
20240621132603 62 175 1.0 5.0 0.00 0.01 0.01 87 1021.3
20240621131917 62 175 1.0 4.0 0.00 0.01 0.01 87 1021.3
20240621130803 62 175 0.0 2.0 0.00 0.01 0.01 88 1021.3
20240621130117 62 175 0.0 2.0 0.00 0.01 0.01 88 1021.2
20240621125214 61 175 0.0 2.0 0.00 0.01 0.01 88 1021.2
20240621124317 61 175 0.0 1.0 0.00 0.01 0.01 89 1021.1
20240621123203 61 175 0.0 2.0 0.00 0.01 0.01 89 1021.1
20240621122516 61 175 0.0 2.0 0.00 0.01 0.01 88 1021.1
20240621121405 61 175 0.0 1.0 0.00 0.01 0.01 87 1021.3
20240621120503 61 175 0.0 1.0 0.00 0.01 0.01 85 1021.4
20240621115813 61 175 0.0 1.0 0.00 0.01 0.01 85 1021.2
20240621114703 61 175 0.0 1.0 0.00 0.01 0.01 82 1021.1
20240621113804 61 175 0.0 2.0 0.00 0.01 0.01 82 1020.9
20240621113116 61 175 0.0 2.0 0.00 0.01 0.01 82 1020.8
20240621112213 61 175 0.0 2.0 0.00 0.01 0.01 82 1020.7
20240621111315 60 175 1.0 5.0 0.00 0.01 0.01 82 1020.6
20240621110413 60 175 0.0 1.0 0.00 0.01 0.01 83 1020.6
20240621105306 60 0 0.0 4.0 0.00 0.01 0.01 83 1020.5
20240621104403 60 175 1.0 4.0 0.00 0.01 0.01 83 1020.8
20240621103715 60 175 0.0 4.0 0.00 0.01 0.01 85 1020.6
20240621102817 60 0 0.0 0.0 0.00 0.01 0.01 85 1020.8
20240621101914 60 0 0.0 0.0 0.00 0.01 0.01 84 1020.7
20240621100804 61 0 0.0 0.0 0.00 0.01 0.01 83 1020.7
20240621095903 61 175 0.0 1.0 0.00 0.01 0.01 82 1020.5
20240621095216 61 175 0.0 1.0 0.00 0.01 0.01 83 1020.5
20240621094319 61 0 0.0 0.0 0.00 0.01 0.01 81 1020.5
20240621093416 62 175 0.0 1.0 0.00 0.01 0.01 81 1020.4
20240621092306 61 175 0.0 2.0 0.00 0.01 0.01 82 1020.5
20240621091616 61 175 1.0 3.0 0.00 0.01 0.01 82 1020.7
20240621090503 62 175 0.0 3.0 0.00 0.01 0.01 82 1019.5
20240621085815 62 176 0.0 1.0 0.00 0.01 0.01 82 1019.9
20240621084703 62 176 0.0 2.0 0.00 0.01 0.01 81 1020.5
20240621083805 62 176 0.0 3.0 0.00 0.01 0.01 80 1020.1
20240621082903 62 176 0.0 2.0 0.00 0.01 0.01 82 1020.6
20240621082003 62 176 0.0 2.0 0.00 0.01 0.01 81 1020.5
20240621081103 62 176 0.0 1.0 0.00 0.01 0.01 80 1020.8
20240621080414 62 176 0.0 1.0 0.00 0.01 0.01 79 1020.8
20240621075517 63 176 0.0 5.0 0.00 0.01 0.01 77 1021.1
20240621074403 63 169 1.0 5.0 0.00 0.01 0.01 77 1021.1
20240621073503 63 163 2.0 4.0 0.00 0.01 0.01 79 1021.5
20240621072814 63 163 1.0 3.0 0.01 0.01 0.01 80 1021.3
20240621071916 63 163 0.0 2.0 0.01 0.01 0.01 78 1021.3
20240621070803 65 0 0.0 1.0 0.01 0.01 0.01 74 1021.4
20240621070116 66 163 0.0 1.0 0.01 0.01 0.01 71 1021.7
20240621065213 67 163 0.0 3.0 0.01 0.01 0.01 67 1022.2
20240621064103 69 163 1.0 5.0 0.01 0.01 0.01 61 1022.6
20240621063203 71 176 1.0 7.0 0.01 0.01 0.01 55 1022.7
20240621062515 72 178 3.0 7.0 0.00 0.00 0.00 47 1023.0
20240621061618 72 182 5.0 11.0 0.00 0.00 0.00 45 1022.9
20240621060504 72 142 1.0 5.0 0.00 0.00 0.00 45 1022.8
20240621055817 72 155 1.0 4.0 0.00 0.00 0.00 45 1022.6
20240621054915 72 246 0.0 2.0 0.00 0.00 0.00 44 1022.5
20240621053803 72 246 1.0 6.0 0.00 0.00 0.00 43 1022.4
20240621053114 72 302 1.0 6.0 0.00 0.00 0.00 42 1022.4
20240621052217 72 3 1.0 10.0 0.00 0.00 0.00 43 1022.3
20240621051314 72 6 1.0 6.0 0.00 0.00 0.00 43 1022.4
20240621050203 72 350 2.0 8.0 0.00 0.00 0.00 43 1022.1
20240621045306 72 355 1.0 4.0 0.00 0.00 0.00 43 1022.2
20240621044616 72 359 1.0 5.0 0.00 0.00 0.00 43 1022.3
20240621043718 72 354 2.0 7.0 0.00 0.00 0.00 44 1022.2
20240621042816 72 345 2.0 6.0 0.00 0.00 0.00 44 1022.0
20240621041913 72 269 2.0 9.0 0.00 0.00 0.00 42 1021.7
20240621041015 72 264 5.0 15.0 0.00 0.00 0.00 42 1021.6
20240621035903 72 260 4.0 13.0 0.00 0.00 0.00 43 1021.6
20240621035003 73 260 7.0 17.0 0.00 0.00 0.00 42 1021.7
20240621034317 73 256 6.0 17.0 0.00 0.00 0.00 43 1021.8
20240621033415 72 274 4.0 21.0 0.00 0.00 0.00 44 1022.0
20240621032306 70 306 1.0 10.0 0.00 0.00 0.00 54 1021.9
20240621031614 70 355 0.0 2.0 0.00 0.00 0.00 59 1021.9
20240621030504 70 355 0.0 2.0 0.00 0.00 0.00 58 1021.3
20240621025814 70 355 0.0 2.0 0.00 0.00 0.00 57 1021.2
20240621024916 71 0 0.0 0.0 0.00 0.00 0.00 56 1020.7
20240621023805 72 0 0.0 3.0 0.00 0.00 0.00 56 1020.7
20240621022903 72 355 0.0 3.0 0.00 0.00 0.00 56 1020.5
20240621022003 73 355 0.0 6.0 0.00 0.00 0.00 56 1020.3
20240621021316 73 355 0.0 6.0 0.00 0.00 0.00 56 1020.4
20240621020203 74 352 2.0 7.0 0.00 0.00 0.00 55 1020.2
20240621015306 74 349 1.0 5.0 0.00 0.00 0.00 55 1020.3
20240621014618 75 349 1.0 3.0 0.00 0.00 0.00 55 1020.3
20240621013503 75 349 1.0 4.0 0.00 0.01 0.00 53 1020.0
20240621012603 75 348 2.0 6.0 0.00 0.01 0.00 52 1020.2
20240621011703 76 341 2.0 6.0 0.00 0.03 0.00 51 1020.5
20240621011017 76 338 1.0 5.0 0.00 0.03 0.00 50 1020.5
20240621005903 77 259 1.0 4.0 0.00 0.03 0.00 47 1020.5
20240621005217 78 248 0.0 2.0 0.00 0.03 0.00 45 1020.6
20240621004104 78 248 0.0 1.0 0.00 0.03 0.00 46 1020.6